sat.trackr.live / text

‹ back to catalog

STARLINK-11252 [DTC]

NORAD 61051 · 2024-164B

PAYLOAD ACTIVE UNKNOWN

§ Identity

Operator
Country
US
Launch date
2024-09-13
Launch site
AFWTR
Launch vehicle
Mass (kg)
RCS (m²)

Purposes: comms

External: N2YO · Heavens-Above · Gunter

§ Orbital elements

Epoch: 2026-05-24T22:17:24.319680Z

Period
91.74 min
Inclination
53.1554°
Eccentricity
0.0000971
Mean motion
15.69717939 rev/d
Perigee alt
359.0 km
Apogee alt
360.4 km
Semi-major
6,737.8 km
B*
1.7172e-5
RAAN
295.3961°
Arg perigee
72.8623°
Mean anomaly
287.2501°
Rev number
9,739

§ Raw data

STARLINK-11252 [DTC]1 61051U 24164B   26144.92875370  .00001493  00000+0  17172-4 0  99962 61051  53.1554 295.3961 0000971  72.8623 287.2501 15.69717939 97398

JSON: /api/v1/satellites/61051 · /tle

For live sub-satellite position, see the globe view (requires WebGL).

§ Visibility from observer

Set your observer location to see the next 7 days of passes ≥ 10°. The values pass through the URL so the page stays shareable.

No JS? Fill the form by hand. The geolocation button needs JavaScript.